Voltar ao catálogo

NOAA 16 DEB

AtivoPO
NORAD 41659·DEBRIS·🇺🇸 United States

Lançado Sep 21, 2000 de Vandenberg Space Force Base

Loading…

Próximas Passagens (próximas 24 horas)

TLE

AtualizadoSource: Space-Track

Época: Sep 13, 2026, 05:38 UTC

1 41659U 00055NY  26256.23532111  .00006034  00000-0  15418-2 0  9998
2 41659  98.8784  45.7413 0012140 218.4360 141.5969 14.50806108540059

Acompanhe NOAA 16 DEB em tempo real com AllMySat

Download on the App Store